Location: Star Hoppers Observatory
(42.7905°N, 83.6127°W)
Time: 18:48:42
(UTC-05:00)

NOSS 3-1 (A) - Visible Passes

Search period start: 03 December 2016 00:00
Search period end: 13 December 2016 00:00
Orbit: 847 x 1365 km, 63.4° (Epoch: 29 November)

Date Brightness Start Highest point End Pass type
(mag) Time Alt. Az. Time Alt. Az. Time Alt. Az.
03 Dec 6.3 18:56:18 10° WNW 19:02:18 25° WSW 19:08:37 10° SSW visible
04 Dec 6.6 07:01:33 10° SE 07:04:48 15° ESE 07:08:12 10° ENE visible
04 Dec 5.7 18:10:54 10° NW 18:17:51 38° WSW 18:25:18 10° S visible
05 Dec 5.0 17:25:50 10° NW 17:33:17 56° WSW 17:41:22 10° SSE visible
05 Dec 7.3 19:21:58 10° W 19:23:01 10° WSW 19:24:05 10° WSW visible
06 Dec 6.9 18:33:46 10° WNW 18:38:46 18° WSW 18:44:00 10° SW visible
07 Dec 6.1 06:36:53 10° SSE 06:41:11 22° ESE 06:45:48 10° ENE visible
07 Dec 6.3 17:47:58 10° NW 17:54:25 29° WSW 18:01:15 10° SSW visible
08 Dec 6.7 05:54:56 10° SE 05:57:01 12° ESE 05:59:08 10° E visible
09 Dec 4.5 06:56:27 10° S 07:02:02 50° ESE 07:08:13 10° NE visible
09 Dec 7.2 18:11:49 10° WNW 18:15:12 13° WSW 18:18:41 10° SW visible
10 Dec 5.4 06:12:39 10° S 06:17:38 30° ESE 06:23:01 10° NE visible
10 Dec 6.7 17:25:14 10° WNW 17:30:55 22° WSW 17:36:53 10° SSW visible
11 Dec 6.1 05:29:40 10° SE 05:33:23 17° ESE 05:37:17 10° ENE visible
11 Dec 3.4 07:17:25 10° SW 07:23:17 78° NW 07:29:54 10° NE visible
12 Dec 3.8 06:32:51 10° SSW 06:38:38 67° ESE 06:45:04 10° NE visible
